Time,TemperatureF,DewpointF,PressureIn,WindDirection,WindDirectionDegrees,WindSpeedMPH,WindSpeedGustMPH,Humidity,HourlyPrecipIn,Conditions,Clouds,dailyrainin,SoftwareType,DateUTC
2013-06-24 00:09:00,77.4,74.0,30.14,SW,216,9.0,-999.0,90,-99.99,,,0.01,weatherlink.com 1.10,2013-06-24 04:09:00,
2013-06-24 00:24:00,77.2,75.0,30.13,SW,229,0.0,-999.0,91,-99.99,,,0.01,weatherlink.com 1.10,2013-06-24 04:24:00,
2013-06-24 00:39:00,77.4,75.0,30.13,SW,217,6.0,-999.0,91,-99.99,,,0.01,weatherlink.com 1.10,2013-06-24 04:39:00,
2013-06-24 00:54:00,77.4,75.0,30.14,WSW,239,0.0,-999.0,91,-99.99,,,0.01,weatherlink.com 1.10,2013-06-24 04:54:00,
2013-06-24 01:09:00,77.4,75.0,30.13,SSW,198,9.0,-999.0,91,-99.99,,,0.01,weatherlink.com 1.10,2013-06-24 05:09:00,
2013-06-24 01:24:00,77.6,75.0,30.14,SW,226,0.0,-999.0,92,-99.99,,,0.01,weatherlink.com 1.10,2013-06-24 05:24:00,
2013-06-24 01:39:00,77.6,75.0,30.14,SSW,208,0.0,-999.0,92,-99.99,,,0.00,weatherlink.com 1.10,2013-06-24 05:39:00,
2013-06-24 02:09:00,77.7,75.0,30.14,SW,219,0.0,-999.0,92,-99.99,,,0.00,weatherlink.com 1.10,2013-06-24 06:09:00,
2013-06-24 02:24:00,77.6,75.0,30.14,SW,230,0.0,-999.0,91,-99.99,,,0.00,weatherlink.com 1.10,2013-06-24 06:24:00,
2013-06-24 02:39:00,77.7,75.0,30.14,SW,230,1.0,-999.0,91,-99.99,,,0.00,weatherlink.com 1.10,2013-06-24 06:39:00,
2013-06-24 02:54:00,77.7,75.0,30.14,WSW,240,0.0,-999.0,91,-99.99,,,0.00,weatherlink.com 1.10,2013-06-24 06:54:00,
2013-06-24 03:09:00,77.7,75.0,30.14,WSW,239,0.0,-999.0,92,-99.99,,,0.00,weatherlink.com 1.10,2013-06-24 07:09:00,
2013-06-24 03:39:00,77.7,75.0,30.14,SW,236,0.0,-999.0,92,-99.99,,,0.00,weatherlink.com 1.10,2013-06-24 07:39:00,
2013-06-24 03:54:00,77.7,75.0,30.14,SW,232,0.0,-999.0,92,-99.99,,,0.00,weatherlink.com 1.10,2013-06-24 07:54:00,
2013-06-24 04:09:00,77.6,75.0,30.14,WSW,253,0.0,-999.0,92,-99.99,,,0.00,weatherlink.com 1.10,2013-06-24 08:09:00,
2013-06-24 04:39:00,77.6,75.0,30.15,WSW,257,0.0,-999.0,91,-99.99,,,0.00,weatherlink.com 1.10,2013-06-24 08:39:00,
2013-06-24 04:54:00,77.4,75.0,30.15,WSW,251,0.0,-999.0,91,-99.99,,,0.00,weatherlink.com 1.10,2013-06-24 08:54:00,
2013-06-24 05:09:00,77.4,75.0,30.15,SW,232,0.0,-999.0,91,-99.99,,,0.00,weatherlink.com 1.10,2013-06-24 09:09:00,
2013-06-24 05:24:00,77.4,75.0,30.15,SW,232,0.0,-999.0,91,-99.99,,,0.00,weatherlink.com 1.10,2013-06-24 09:24:00,
2013-06-24 05:54:00,77.4,75.0,30.15,SW,229,0.0,-999.0,91,-99.99,,,0.00,weatherlink.com 1.10,2013-06-24 09:54:00,
2013-06-24 06:09:00,77.4,75.0,30.15,SW,229,0.0,-999.0,91,-99.99,,,0.00,weatherlink.com 1.10,2013-06-24 10:09:00,
2013-06-24 06:24:00,77.4,75.0,30.15,SW,229,0.0,-999.0,91,-99.99,,,0.00,weatherlink.com 1.10,2013-06-24 10:24:00,
2013-06-24 06:39:00,77.7,75.0,30.15,South,179,0.0,-999.0,92,-99.99,,,0.00,weatherlink.com 1.10,2013-06-24 10:39:00,
2013-06-24 06:54:00,77.9,76.0,30.15,SSW,196,1.0,-999.0,92,-99.99,,,0.00,weatherlink.com 1.10,2013-06-24 10:54:00,
2013-06-24 07:09:00,78.1,76.0,30.15,SSW,202,0.0,-999.0,92,-99.99,,,0.00,weatherlink.com 1.10,2013-06-24 11:09:00,
2013-06-24 07:39:00,78.8,75.0,30.16,South,174,0.0,-999.0,89,-99.99,,,0.00,weatherlink.com 1.10,2013-06-24 11:39:00,
2013-06-24 07:54:00,79.0,75.0,30.17,South,191,0.0,-999.0,88,-99.99,,,0.00,weatherlink.com 1.10,2013-06-24 11:54:00,
2013-06-24 08:09:00,78.8,75.0,30.17,SSW,198,0.0,-999.0,88,-99.99,,,0.00,weatherlink.com 1.10,2013-06-24 12:09:00,
2013-06-24 08:39:00,79.0,75.0,30.18,SSW,196,0.0,-999.0,88,-99.99,,,0.00,weatherlink.com 1.10,2013-06-24 12:39:00,
2013-06-24 08:54:00,79.0,75.0,30.18,SW,216,0.0,-999.0,87,-99.99,,,0.00,weatherlink.com 1.10,2013-06-24 12:54:00,
2013-06-24 09:09:00,79.4,75.0,30.18,SW,217,0.0,-999.0,87,-99.99,,,0.00,weatherlink.com 1.10,2013-06-24 13:09:00,
2013-06-24 09:24:00,79.2,75.0,30.18,SW,217,0.0,-999.0,86,-99.99,,,0.00,weatherlink.com 1.10,2013-06-24 13:24:00,
2013-06-24 09:39:00,80.1,75.0,30.18,SW,236,0.0,-999.0,85,-99.99,,,0.00,weatherlink.com 1.10,2013-06-24 13:39:00,
2013-06-24 09:54:00,77.9,73.0,30.19,WNW,284,6.0,-999.0,85,-99.99,,,0.00,weatherlink.com 1.10,2013-06-24 13:54:00,
2013-06-24 10:24:00,77.0,75.0,30.18,WSW,237,0.0,-999.0,92,-99.99,,,0.14,weatherlink.com 1.10,2013-06-24 14:24:00,
2013-06-24 10:39:00,78.3,76.0,30.17,South,186,0.0,-999.0,92,-99.99,,,0.14,weatherlink.com 1.10,2013-06-24 14:39:00,
2013-06-24 10:54:00,79.8,78.0,30.17,SW,219,0.0,-999.0,93,-99.99,,,0.14,weatherlink.com 1.10,2013-06-24 14:54:00,
2013-06-24 11:24:00,80.7,77.0,30.17,SW,234,0.0,-999.0,89,-99.99,,,0.14,weatherlink.com 1.10,2013-06-24 15:24:00,
2013-06-24 11:39:00,81.2,77.0,30.17,SW,233,0.0,-999.0,86,-99.99,,,0.14,weatherlink.com 1.10,2013-06-24 15:39:00,
2013-06-24 11:54:00,81.2,76.0,30.17,SW,232,0.0,-999.0,85,-99.99,,,0.14,weatherlink.com 1.10,2013-06-24 15:54:00,
2013-06-24 12:09:00,81.4,76.0,30.17,WNW,295,8.0,-999.0,84,-99.99,,,0.14,weatherlink.com 1.10,2013-06-24 16:09:00,
2013-06-24 12:24:00,82.0,76.0,30.16,SW,229,0.0,-999.0,83,-99.99,,,0.14,weatherlink.com 1.10,2013-06-24 16:24:00,
2013-06-24 12:39:00,81.8,76.0,30.17,WSW,243,6.0,-999.0,83,-99.99,,,0.14,weatherlink.com 1.10,2013-06-24 16:39:00,
2013-06-24 12:54:00,81.6,76.0,30.17,WSW,240,0.0,-999.0,83,-99.99,,,0.14,weatherlink.com 1.10,2013-06-24 16:54:00,
2013-06-24 13:09:00,81.2,76.0,30.17,SSW,206,0.0,-999.0,84,-99.99,,,0.14,weatherlink.com 1.10,2013-06-24 17:09:00,
2013-06-24 13:24:00,81.8,77.0,30.16,WSW,250,7.0,-999.0,84,-99.99,,,0.14,weatherlink.com 1.10,2013-06-24 17:24:00,
2013-06-24 13:54:00,81.1,76.0,30.15,SSW,213,6.0,-999.0,84,-99.99,,,0.14,weatherlink.com 1.10,2013-06-24 17:54:00,
2013-06-24 14:09:00,80.1,76.0,30.15,SSW,210,0.0,-999.0,87,-99.99,,,0.14,weatherlink.com 1.10,2013-06-24 18:09:00,
2013-06-24 14:24:00,79.6,76.0,30.14,SW,226,0.0,-999.0,89,-99.99,,,0.14,weatherlink.com 1.10,2013-06-24 18:24:00,
2013-06-24 14:39:00,80.3,76.0,30.14,SW,219,6.0,-999.0,86,-99.99,,,0.14,weatherlink.com 1.10,2013-06-24 18:39:00,
2013-06-24 14:54:00,80.7,76.0,30.13,WSW,243,0.0,-999.0,85,-99.99,,,0.14,weatherlink.com 1.10,2013-06-24 18:54:00,
2013-06-24 15:24:00,78.6,74.0,30.11,SW,234,0.0,-999.0,85,-99.99,,,0.14,weatherlink.com 1.10,2013-06-24 19:24:00,
2013-06-24 15:39:00,79.2,75.0,30.11,SW,217,4.0,-999.0,86,-99.99,,,0.14,weatherlink.com 1.10,2013-06-24 19:39:00,
2013-06-24 15:54:00,79.8,76.0,30.11,South,189,2.0,-999.0,87,-99.99,,,0.14,weatherlink.com 1.10,2013-06-24 19:54:00,
2013-06-24 16:24:00,79.9,76.0,30.11,SSW,200,0.0,-999.0,87,-99.99,,,0.14,weatherlink.com 1.10,2013-06-24 20:24:00,
2013-06-24 16:39:00,79.9,76.0,30.11,SW,222,1.0,-999.0,87,-99.99,,,0.14,weatherlink.com 1.10,2013-06-24 20:39:00,
2013-06-24 16:54:00,79.9,76.0,30.11,WSW,243,0.0,-999.0,88,-99.99,,,0.14,weatherlink.com 1.10,2013-06-24 20:54:00,
2013-06-24 17:09:00,79.9,76.0,30.11,SW,219,4.0,-999.0,88,-99.99,,,0.14,weatherlink.com 1.10,2013-06-24 21:09:00,
2013-06-24 17:24:00,79.9,76.0,30.11,WSW,250,9.0,-999.0,88,-99.99,,,0.14,weatherlink.com 1.10,2013-06-24 21:24:00,
2013-06-24 17:54:00,79.8,76.0,30.09,SW,219,0.0,-999.0,88,-99.99,,,0.14,weatherlink.com 1.10,2013-06-24 21:54:00,
2013-06-24 18:09:00,79.6,76.0,30.07,SSW,199,0.0,-999.0,88,-99.99,,,0.14,weatherlink.com 1.10,2013-06-24 22:09:00,
2013-06-24 18:24:00,79.4,76.0,30.06,SSW,202,8.0,-999.0,89,-99.99,,,0.14,weatherlink.com 1.10,2013-06-24 22:24:00,
2013-06-24 18:39:00,79.2,76.0,30.06,SW,219,4.0,-999.0,89,-99.99,,,0.14,weatherlink.com 1.10,2013-06-24 22:39:00,
2013-06-24 18:54:00,79.0,76.0,30.06,South,186,1.0,-999.0,90,-99.99,,,0.14,weatherlink.com 1.10,2013-06-24 22:54:00,
2013-06-24 19:39:00,79.0,75.0,30.07,SW,234,9.0,-999.0,88,-99.99,,,0.14,weatherlink.com 1.10,2013-06-24 23:39:00,
2013-06-24 19:54:00,79.0,75.0,30.07,SW,223,4.0,-999.0,88,-99.99,,,0.14,weatherlink.com 1.10,2013-06-24 23:54:00,
2013-06-24 20:09:00,79.0,75.0,30.08,SW,217,10.0,-999.0,88,-99.99,,,0.14,weatherlink.com 1.10,2013-06-25 00:09:00,
2013-06-24 20:24:00,78.8,75.0,30.09,SW,226,6.0,-999.0,88,-99.99,,,0.14,weatherlink.com 1.10,2013-06-25 00:24:00,
2013-06-24 20:39:00,79.0,75.0,30.09,SW,232,0.0,-999.0,88,-99.99,,,0.14,weatherlink.com 1.10,2013-06-25 00:39:00,
2013-06-24 20:54:00,78.8,75.0,30.09,SSW,205,7.0,-999.0,88,-99.99,,,0.14,weatherlink.com 1.10,2013-06-25 00:54:00,
2013-06-24 21:09:00,78.6,75.0,30.09,WSW,248,0.0,-999.0,89,-99.99,,,0.14,weatherlink.com 1.10,2013-06-25 01:09:00,
2013-06-24 21:24:00,78.6,75.0,30.09,SW,233,8.0,-999.0,89,-99.99,,,0.14,weatherlink.com 1.10,2013-06-25 01:24:00,
2013-06-24 21:39:00,78.6,76.0,30.09,SW,234,2.0,-999.0,90,-99.99,,,0.14,weatherlink.com 1.10,2013-06-25 01:39:00,
2013-06-24 22:09:00,78.5,75.0,30.10,WSW,248,0.0,-999.0,90,-99.99,,,0.14,weatherlink.com 1.10,2013-06-25 02:09:00,
2013-06-24 22:24:00,78.5,75.0,30.10,WSW,247,4.0,-999.0,90,-99.99,,,0.14,weatherlink.com 1.10,2013-06-25 02:24:00,
2013-06-24 22:39:00,78.3,76.0,30.09,SW,230,0.0,-999.0,91,-99.99,,,0.14,weatherlink.com 1.10,2013-06-25 02:39:00,
2013-06-24 22:54:00,78.1,75.0,30.09,SW,234,0.0,-999.0,91,-99.99,,,0.14,weatherlink.com 1.10,2013-06-25 02:54:00,
2013-06-24 23:09:00,78.1,75.0,30.09,WSW,250,4.0,-999.0,91,-99.99,,,0.14,weatherlink.com 1.10,2013-06-25 03:09:00,